Regional Weather Roundup
Issued by NWS Northern Indiana

Home | Current Version | Previous Version | Graphics & Text | Print | Product List | Glossary On
Versions: 1 2 3 4 5 6 7 8 9 10 11 12 13 14 15 16 17 18 19 20 21 22 23 24 25 26 27 28 29 30 31 32 33 34 35 36 37 38 39 40 41 42 43 44 45 46 47 48 49 50
000
ASUS43 KIWX 290200
RWRIWX

KIWX WEATHER ROUNDUP
NATIONAL WEATHER SERVICE NORTHERN INDIANA
1000 PM EDT MON JUL 28 2014

NOTE: "FAIR" INDICATES FEW OR NO CLOUDS BELOW 12,000 FEET WITH NO
SIGNIFICANT WEATHER AND/OR OBSTRUCTIONS TO VISIBILITY.

* THESE STATIONS ARE NOT UNDER NWS QUALITY CONTROL. THEY ALSO MAY NOT
  REPORT WEATHER SUCH AS PRECIPITATION OR FOG.

INZ001>027-290300-
NORTHERN INDIANA

CITY           SKY/WX    TMP DP  RH WIND       PRES   REMARKS
GARY*          MOCLDY    61  54  77 CALM      30.08S
VALPARAISO     CLEAR     57  49  74 NW3       30.07S
KNOX*          CLEAR     53  46  78 N7        30.06S
SOUTH BEND     CLEAR     56  48  74 N9        30.06S
GOSHEN         CLEAR     54  49  83 NW7       30.05R
MONTICELLO*    CLEAR     56  50  79 NW5       30.06R
WARSAW*        CLEAR     54  50  87 NW5       30.05R
ANGOLA*        CLEAR     57  52  82 NW6       30.03R
FORT WAYNE     CLEAR     57  49  74 NW6       30.03R
PERU/GRISSOM   CLEAR     56  50  79 NW6       30.05R

$$
INZ028>050-290300-
CENTRAL INDIANA

CITY           SKY/WX    TMP DP  RH WIND       PRES   REMARKS
LAFAYETTE      CLEAR     59  48  67 CALM      30.07S
KOKOMO*        CLEAR     55  48  76 N8        30.05R
MUNCIE*        CLEAR     56  49  77 NW8       30.03R
INDIANAPOLIS   CLEAR     58  46  64 NW9       30.04F

$$
MIZ043>046-050>051-056>058-064>065-071>073-077>080-290300-
SOUTHWEST LOWER MICHIGAN

CITY           SKY/WX    TMP DP  RH WIND       PRES   REMARKS
BATTLE CREEK   PTCLDY    57  48  72 W6        30.04R
BENTON HARBOR  CLOUDY    53  50  89 CALM      30.05S
COLDWATER*     MOCLDY    62  51  67 N9        30.03R
HILLSDALE*     MOCLDY    61  50  66 N8        30.02R
HOLLAND        CLEAR     57  48  72 NW3       30.05R
GRAND RAPIDS   CLEAR     60  46  59 N5        30.04R
KALAMAZOO      CLEAR     57  49  74 NW8       30.05R
STURGIS*       CLEAR     55  52  88 NW3       30.03S
THREE RIVERS*  FAIR      56  52  85 NW6       30.05R

$$
OHZ001>008-015>018-024>025-290300-
NORTHWEST OHIO

CITY           SKY/WX    TMP DP  RH WIND       PRES   REMARKS
DEFIANCE       CLEAR     61  52  72 NW5       30.00R
FINDLAY        CLOUDY    67  53  61 N9        29.97R
TOLEDO EXPRESS MOCLDY    63  51  65 N9        29.99R
TOLEDO METCALF CLOUDY    64  51  62 N8        30.00R
LIMA           CLEAR     62  53  72 NW13      30.00R

$$
&&


USA.gov is the U.S. government's official web portal to all federal, state and local government web resources and services.